Погода в Гергебиле

Россия / Республика Дагестан     42°30′11″N   47°04′05″E
темп.,
°C
ветер,
м/с
пор.,
м/с
влажн.,
%
обл.,
%
осадки,
мм/ч
давл.,
гПа
погр.,
м
4 декабря, сб
сб400:000зюз22450 0.0 102011
03:000юз22470 0.0 102011
06:000юз22455 0.0 102111
09:00+3юз12395 0.0 102071
12:00+8ссз01295 0.0 1016286
15:00+7св11425 0.0 101620
18:00+3ююз21490 0.0 101811
21:00+1ююз22510 0.0 101812
5 декабря, вс
вс500:00+1ююз224643 0.0 101612
03:00+1юз22451 0.0 101514
06:00+2юз224199 0.0 101412
09:00+4юз123640 0.0 101263
12:00+9сз1126100 0.0 1009247
15:00+7с22416 0.0 101021
18:00+4з11489 0.0 101310
21:00+3з1150100 0.0 101611
6 декабря, пн
пн600:00+2зюз114790 0.0 101710
03:00+2зюз114797 0.0 101910
06:00+1ююз11505 0.0 102110
09:00+3ююз11455 0.0 102288
12:00+6в12502 0.0 1020426
15:00+7всв11585 0.0 1019450
18:00+4юв11745 0.0 102311
21:00+3ююз11715 0.0 102411
7 декабря, вт
вт700:00+2юз116264 0.0 102410
03:00+2юз11630 0.0 102410
06:00+2ююз21620 0.0 102411
09:00+5ююз11500 0.0 102356
12:00+9юв11360 0.0 1019240
15:00+10юв12400 0.0 101714
18:00+6юз22500 0.0 101711
21:00+5юз22410 0.0 101712
8 декабря, ср
ср800:00+4юз32395 0.0 101614
03:00+3юз32390 0.0 101515
06:00+3юз32380 0.0 101315
09:00+6юз323374 0.0 101141
12:00+14юз232332 0.0 1006215
15:00+13юз433031 0.0 100548
18:00+8юз33410 0.0 100720
21:00+7юз22474 0.0 100611